Regional Weather Roundup
Issued by NWS

Home | Current Version | Previous Version | Graphics & Text | Print | Product List | Glossary On
Versions: 1 2 3 4 5 6 7 8 9 10 11 12 13 14 15 16 17 18 19 20 21 22 23 24 25 26 27 28 29 30 31 32 33 34 35 36 37 38 39 40 41 42 43 44 45 46 47 48 49 50
188
ASUS43 KMPX 291410
RWRMN
WEATHER ROUNDUP FOR MINNESOTA
NATIONAL WEATHER SERVICE TWIN CITIES/CHANHASSEN MN
900 AM CDT FRI APR 29 2016


NOTE: "FAIR" INDICATES FEW OR NO CLOUDS BELOW 12,000 FEET WITH NO
SIGNIFICANT WEATHER AND/OR OBSTRUCTIONS TO VISIBILITY. N/A MEANS
CURRENT SKY AND/OR WEATHER CONDITIONS ARE NOT AVAILABLE.

MNZ060>063-068>070-291500-
   Twin Cities Metro

CITY           SKY/WX    TMP DP  RH WIND       PRES   REMARKS
TWIN CITIES    MOSUNNY   44  39  82 NW7       30.19F
ST PAUL        MOSUNNY   43  39  86 NW7       30.20F
CRYSTAL        PTSUNNY   44  39  82 NW8       30.18F
BLAINE         PTSUNNY   43  43 100 CALM      30.19S
EDEN PRAIRIE   SUNNY     45  39  79 N7        30.16F
SOUTH ST PAUL  SUNNY     42  41  97 W6        30.18F
LAKE ELMO      PTSUNNY   41  37  87 NW6       30.20S
$$
MNZ001>005-007-008-013>017-022>024-027-028-291500-
   Northwest Minnesota

CITY           SKY/WX    TMP DP  RH WIND       PRES   REMARKS
BEMIDJI        MOSUNNY   44  31  61 NE8       30.18S
HALLOCK        SUNNY     50  30  46 E7        30.23S
ROSEAU         SUNNY     45  36  70 E6        30.24R
WARROAD        SUNNY     41  34  75 NE8       30.24S
THIEF RVR FALL CLOUDY    45  30  57 NE8       30.22S
CROOKSTON      PTSUNNY   46  32  57 E9        30.21S
FOSSTON        MOSUNNY   43  34  70 NE10      30.20R
DETROIT LAKES  SUNNY     45  37  76 SW3       30.19R
MOORHEAD       SUNNY     43  37  81 CALM      30.20S
PARK RAPIDS    MOSUNNY   44  35  70 SW6       30.18R
MAHNOMEN       FAIR      45  33  63 CALM      30.19R
$$
MNZ006-009>011-018-025>026-291500-
   North Central Minnesota

CITY           SKY/WX    TMP DP  RH WIND       PRES   REMARKS
BAUDETTE       SUNNY     48  30  49 NE9       30.21F
FLAG ISLAND    SUNNY     43  30  61 NE7       30.24S
INTL FALLS     SUNNY     44  31  60 NE8       30.21S
WASKISH        SUNNY     46  34  61 NE8       30.20F
BIG FORK       SUNNY     45  34  65 N3        30.19R
LONGVILLE      MOSUNNY   46  30  53 CALM      30.17R
GRAND RAPIDS   SUNNY     45  27  49 NE3       30.19S
CRANE LAKE     CLOUDY    41  34  75 CALM      30.22S
ORR            MOSUNNY   43  28  56 CALM      30.17S
COOK           CLOUDY    43  30  61 CALM      30.20R
WALKER         FAIR      43  32  64 CALM      30.17S
$$
MNZ012-019>021-037-291500-
   Northeast Minnesota

CITY           SKY/WX    TMP DP  RH WIND       PRES   REMARKS
DULUTH         MOSUNNY   44  26  49 NE7       30.18S
ELY            CLOUDY    41  30  65 NE7       30.19S
HIBBING        SUNNY     43  27  53 E6        30.18S
EVELETH        PTSUNNY   43  28  56 NE6       30.19S
DULUTH HARBOR  SUNNY     41  30  65 CALM      30.22R
TWO HARBORS    SUNNY     48  32  53 E6        30.17R
SILVER BAY     SUNNY     46  28  49 CALM      30.17S
GRAND MARAIS     N/A     41  33  73 SE5       30.19S
G MARAIS ARPRT SUNNY     43  27  52 N9        30.17S
$$
MNZ029>031-032-039>041-046>048-054>057-064-291500-
   West Central Minnesota

CITY           SKY/WX    TMP DP  RH WIND       PRES   REMARKS
FERGUS FALLS   SUNNY     45  37  76 W6        30.19S
WHEATON        SUNNY     48  41  76 W3        30.22S
MORRIS         MOSUNNY   45  39  81 W5        30.21R
ALEXANDRIA     MOSUNNY   43  38  82 W7        30.20S
ELBOW LAKE     FAIR      44  39  83 SW7       30.21R
WADENA         CLOUDY    43  39  87 W6        30.19R
GLENWOOD       SUNNY     43  39  87 W7        30.20S
APPLETON       SUNNY     45  37  76 N6        30.20F
BENSON         MOSUNNY   46  37  71 NE7       30.21S
ORTONVILLE     SUNNY     43  37  81 CALM      30.20F
MADISON        SUNNY     43  43 100 N9        30.19F
WILLMAR        FAIR      45  39  81 N9        30.21F
$$
MNZ033>034-036-042>043-049>051-058-059-291500-
   Central Minnesota

CITY           SKY/WX    TMP DP  RH WIND       PRES   REMARKS
ST CLOUD       CLOUDY    43  35  73 CALM      30.20R
SAUK CENTRE    FAIR      41  38  89 W7        30.20S
PAYNESVILLE    MOSUNNY   42  42 100 NW7       30.21R
AITKIN         CLOUDY    45  28  53 E3        30.17R
PINE RIVER     CLOUDY    45  30  57 CALM      30.21R
BRAINERD       SUNNY     43  28  55 CALM      30.19R
STAPLES        SUNNY     43  37  81 NW3       30.19S
LONG PRAIRIE   FAIR      41  37  87 NW3       30.20S
LITTLE FALLS   CLOUDY    43  30  61 SE3       30.20R
LITCHFIELD     MOSUNNY   43  43 100 N8        30.19F
BUFFALO        PTSUNNY   41  39  91 NW7       30.20F
MAPLE LAKE     CLOUDY    41  41  99 NW6       30.20F
HUTCHINSON     SUNNY     44  40  86 N9        30.18F
$$
MNZ037-044-045-052-053-291500-
   East Central Minnesota

CITY           SKY/WX    TMP DP  RH WIND       PRES   REMARKS
PRINCETON        N/A     41  34  75 CALM      30.21S
MORA           CLOUDY    41  30  65 CALM      30.22R
CAMBRIDGE      MOSUNNY   43  32  65 CALM      30.18S
RUSH CITY      MOSUNNY   41  30  65 N5        30.21R
MOOSE LAKE     MOSUNNY   43  27  52 NE7       30.18R
HINCKLEY       FAIR      43  32  65 N7        30.19S
CLOQUET        SUNNY     43  27  52 NE7       30.18S
MCGREGOR       CLOUDY    41  30  65 NE5       30.20R
$$
MNZ071>073-080-081-089-090-097-098-291500-
   Southwest Minnesota

CITY           SKY/WX    TMP DP  RH WIND       PRES   REMARKS
MONTEVIDEO     MOSUNNY   45  43  93 NE9       30.20F
GRANITE FALLS  MOSUNNY   43  38  84 N5        30.21R
CANBY          CLOUDY    44  43  97 NE6       30.19F
MARSHALL       CLOUDY    41  37  86 NE6       30.19S
REDWOOD FALLS  PTSUNNY   41  36  82 NE5       30.18S
OLIVIA         PTSUNNY   41  37  87 NE5       30.17F
PIPESTONE      CLOUDY    37  36  93 NE7       30.14F
WINDOM         CLOUDY    37  36  93 CALM      30.16F
WORTHINGTON    CLOUDY    38  35  89 NE13      30.15S
JACKSON        CLOUDY    39  36  87 N10       30.15S
TRACY          CLOUDY    39  37  95 NE7       30.19R
SLAYTON        CLOUDY    35  35 100 N7        30.17S FOG     WCI  29
$$
MNZ065>067-074>077-082>085-091>093-291500-
   South Central Minnesota

CITY           SKY/WX    TMP DP  RH WIND       PRES   REMARKS
MANKATO        CLOUDY    41  36  81 N8        30.17S
NEW ULM        SUNNY     41  37  87 NE5       30.17S
ST JAMES       CLOUDY    34  32  93 N6        30.19R WCI  29
FAIRMONT       CLOUDY    37  28  70 NE9       30.15F
GLENCOE        MOSUNNY   42  42 100 CALM      30.17F
FARIBAULT      SUNNY     43  37  81 N1        30.16F
OWATONNA       MOSUNNY   41  37  87 NE9       30.15F
WASECA         PTSUNNY   41  37  87 NE9       30.17F
ALBERT LEA     CLOUDY    37  37 100 VRB7      30.15R
$$
MNZ078>079-086>088-094>096-291500-
   Southeast Minnesota

CITY           SKY/WX    TMP DP  RH WIND       PRES   REMARKS
ROCHESTER      CLOUDY    39  38  96 N9        30.15F
RED WING       CLOUDY    39  37  93 W3        30.19S
STANTON        SUNNY     44  38  82 N7        30.16F
DODGE CENTER   MOSUNNY   45  43  93 NE10      30.14F
WINONA         CLOUDY    41  37  87 N7        30.18S
AUSTIN         MOSUNNY   39  36  87 NE8       30.15R
PRESTON        CLOUDY    38  35  88 N7        30.14F
$$
ABBREVIATIONS USED IN REMARKS
   TC - TEMPERATURES IN CELSIUS
  WCI - WIND CHILL INDEX
   HX - HEAT INDEX
  VSB - VISIBILITY
$$




USA.gov is the U.S. government's official web portal to all federal, state and local government web resources and services.